Location: Newark
(43.5831°N, 21.3381°E)
Time: 02:06:21
(UTC+00:00)

Envisat - Pass Details

Date: 15 December 2019
Orbit: 764 x 766 km, 98.1° (Epoch: 23 January)

Event Time Altitude Azimuth Distance (km) Brightness Sun altitude
Rises 17:50:01 0° 211° (SSW) 3,220 6.7 -30.0°
Reaches altitude 10° 17:53:14 10° 233° (SW) 2,300 6.1 -30.6°
Maximum altitude 17:56:16 16° 270° (W) 1,928 5.8 -31.2°
Drops below altitude 10° 17:59:19 10° 307° (NW) 2,311 6.0 -31.7°
Sets 18:02:35 0° 329° (NNW) 3,243 6.6 -32.3°
